Regional Weather Roundup
Issued by NWS

Home | Current Version | Previous Version | Text Only | Print | Product List | Glossary On
Versions: 1 2 3 4 5 6 7 8 9 10 11 12 13 14 15 16 17 18 19 20 21 22 23 24 25 26 27 28 29 30 31 32 33 34 35 36 37 38 39 40 41 42 43 44 45 46 47 48 49 50
000
ASUS45 KPSR 180210
RWRAZ

ARIZONA HOURLY REGIONAL WEATHER ROUNDUP
NATIONAL WEATHER SERVICE PHOENIX AZ
700 PM MST THU AUG 17 2017

NOTE: FAIR INDICATES FEW OR NO CLOUDS BELOW 12,000 FEET WITH NO
SIGNIFICANT WEATHER AND/OR OBSTRUCTIONS TO VISIBILITY.

AZZ001>003-036-180300-
NORTHWEST ARIZONA

CITY           SKY/WX    TMP DP  RH WIND       PRES   REMARKS
BULLHEAD CITY  CLEAR    102  36  10 SW6       29.80S
KINGMAN        CLEAR     89  38  16 SW10      30.03S
$$

AZZ004>008-015-016-018-180300-
NORTH CENTRAL ARIZONA

CITY           SKY/WX    TMP DP  RH WIND       PRES   REMARKS
GRAND CANYON   PTCLDY    73  33  23 SW6       30.28R
WILLIAMS       CLEAR     72  37  28 SW6       30.29R
PRESCOTT       CLEAR     79  37  22 S6        30.16S
FLAGSTAFF      CLEAR     69  31  24 SW6       30.32R
PAYSON           N/A     81  25  12 W7        30.19R
PAGE           CLEAR     91  32  12 NE3       30.04S
$$

AZZ009>014-017-180300-
NORTHEAST ARIZONA

CITY           SKY/WX    TMP DP  RH WIND       PRES   REMARKS
WINSLOW        CLEAR     84  29  13 W8        30.12R
SAINT JOHNS    CLEAR     80  34  19 NW5       30.18R
WINDOW ROCK    CLEAR     78  28  16 W6        30.27R
SHOW LOW       CLEAR     75  39  27 SW7       30.27S
$$

AZZ540-542>544-546-548-180300-
GREATER PHOENIX AREA

CITY           SKY/WX    TMP DP  RH WIND       PRES   REMARKS
PHOENIX        PTCLDY   100  30   8 N6        29.84R
BUCKEYE        CLEAR    100  37  11 CALM      29.84S
GLENDALE       CLEAR    100  34  10 W6        29.86S
LUKE AFB       CLEAR     99  40  13 N3        29.84S
DEER VALLEY    CLEAR     98  22   6 CALM      29.87S
SCOTTSDALE     CLEAR     99  22   6 E3        29.90R
MESA-FALCON    CLEAR     99  28   8 VRB5      29.88S
MESA-GATEWAY   CLEAR     99  36  11 CALM      29.88S
$$

AZZ539-553-180300-
SOUTHWEST MARICOPA COUNTY AND PINAL COUNTY

CITY           SKY/WX    TMP DP  RH WIND       PRES   REMARKS
CASA GRANDE    CLEAR     96  41  15 NE8       29.88S
GILA BEND      CLEAR    102  30   8 NW7       29.81R
$$

AZZ503-504-507>509-180300-
SOUTHEAST ARIZONA

CITY           SKY/WX    TMP DP  RH WIND       PRES   REMARKS
TUCSON         NOT AVBL
DAVIS-MONTHAN  CLEAR     95  32  11 NE6       29.97S
RYAN FIELD     CLEAR     97  32  10 CALM      29.96R
NOGALES        CLEAR     83  43  24 S5        30.09S
SIERRA VISTA   CLEAR     80  34  19 W8        30.16R
DOUGLAS        CLEAR     86  44  23 CALM      30.09S
SAFFORD        CLEAR     90  43  19 W7        29.97R
$$

AZZ532-180300-
SOUTHWEST ARIZONA

CITY           SKY/WX    TMP DP  RH WIND       PRES   REMARKS
YUMA           CLEAR    100  49  17 W8        29.78R
$$

CAZ041-043-047-048-061-525>527-560>570-180300-
SOUTHERN CALIFORNIA

CITY           SKY/WX    TMP DP  RH WIND       PRES   REMARKS
DOWNTOWN L.A.  CLEAR     73  61  65 W5        29.95S
L.A. AIRPORT   PTCLDY    69  63  81 W15       29.96S
SAN DIEGO      PTCLDY    72  61  68 W9        29.98S
BURBANK        CLEAR     75  56  51 S12       29.95R
ONTARIO        CLEAR     80  56  43 W9        29.95R
RIVERSIDE      CLEAR     79  47  32 W9        29.95R
PALM SPRINGS   CLEAR     99  53  21 NW15G23   29.82R
EL CENTRO NAS  CLEAR    101  45  15 E3        29.78R
IMPERIAL       CLEAR    101  51  18 CALM      29.75S
BLYTHE         CLEAR    103  41  12 S6        29.78S
NEEDLES        CLEAR    104  29   7 VRB7      29.82S
$$

NVZ020-UTZ003-180300-
SOUTHERN NEVADA-UTAH

CITY           SKY/WX    TMP DP  RH WIND       PRES   REMARKS
LAS VEGAS      PTCLDY    98  40  13 S3        29.91S
SALT LAKE CITY CLEAR     87  37  17 NE7       30.06F
$$

NMZ009-TXZ055-180300-
NEW MEXICO-WEST TEXAS

CITY           SKY/WX    TMP DP  RH WIND       PRES   REMARKS
ALBUQUERQUE    PTCLDY    86  34  15 SW3       30.14R
EL PASO        PTCLDY    88  50  27 E3        30.04R
$$


........................KEY........................
SKY/WX - SKY CONDITION/WEATHER
TMP    - TEMPERATURE IN FAHRENHEIT
DP     - DEW POINT IN FAHRENHEIT
RH     - RELATIVE HUMIDITY IN PERCENT
WIND   - DIRECTION AND SPEED IN MILES PER HOUR (MPH)
VRB    - VARIABLE WIND DIRECTION
PRES   - MEAN SEA LEVEL PRESSURE IN INCHES OF MERCURY
         F - FALLING PRESSURE   R - RISING PRESSURE
         S - STEADY PRESSURE
VSB    - VISIBILITY IN MILES
HX     - HEAT INDEX IN FAHRENHEIT
WCI    - WIND CHILL INDEX IN FAHRENHEIT
TC     - TEMPERATURE IN CELSIUS WHICH IS ALSO KNOWN AS
         TEMPERATURE IN CENTIGRADE
AFB    - AIR FORCE BASE
         LUKE AFB IS LUKE AIR FORCE BASE
         DAVIS-MONTHAN IS DAVIS-MONTHAN AIR FORCE BASE
NAS    - NAVAL AIR STATION
         EL CENTRO NAS IS EL CENTRO NAVAL AIR STATION
N/A    - NOT AVAILABLE




USA.gov is the U.S. government's official web portal to all federal, state and local government web resources and services.